User: anonymous   Login
Location: G�ppingen
(48.7089°N, 9.6563°E)
Time: 09:30:57
(UTC+01:00)
Language:

NOAA 19 - Orbit

View from above orbital plane
View from above orbital plane
View from above satellite
View from above satellite

Ground track
Ground track

The orbit data is extracted from the following two-line orbital elements,

1 33591U 09005A   19079.93090788 +.00000012 +00000-0 +31657-4 0  9994
2 33591 099.1750 068.9067 0012967 270.5051 089.4634 14.12339955520974
Epoch (UTC): 20 March 2019 22:20:30
Eccentricity: 0.0012967
inclination: 99.1750°
perigee height: 842 km
apogee height: 861 km
right ascension of ascending node: 68.9067°
argument of perigee: 270.5051°
revolutions per day: 14.12339955
mean anomaly at epoch: 89.4634°
orbit number at epoch: 52097

The dashed part of the orbit path shows where the satellite is in the earth's shadow,  

DLR